This is the latest recevied weather packets stored in our database for station/object KC5TIL-3. If no packets are shown the sender has not sent any weather packets the latest 10 day(s).
| Time | Temp. | Humidity | Pressure | Rain* | Wind** | Luminosity | Snow |
|---|---|---|---|---|---|---|---|
| 1777892660 | 17.22° C | 43% | 1010.8 hPa | 0 mm | 3.13 m/s, 220° | - | - |
| 1777892361 | 17.22° C | 43% | 1010.8 hPa | 0 mm | 3.58 m/s, 209° | - | - |
| 1777892060 | 17.22° C | 43% | 1010.8 hPa | 0 mm | 2.68 m/s, 216° | - | - |
| 1777891756 | 17.22° C | 42% | 1010.8 hPa | 0 mm | 4.02 m/s, 206° | - | - |
| 1777891449 | 17.22° C | 42% | 1010.8 hPa | 0 mm | 4.47 m/s, 194° | - | - |
| 1777891144 | 17.22° C | 42% | 1010.8 hPa | 0 mm | 3.58 m/s, 202° | - | - |
| 1777890845 | 17.22° C | 42% | 1010.8 hPa | 0 mm | 4.47 m/s, 201° | - | - |
| 1777889947 | 17.22° C | 42% | 1010.8 hPa | 0 mm | 4.02 m/s, 191° | - | - |
| 1777889649 | 17.22° C | 42% | 1010.8 hPa | 0 mm | 4.02 m/s, 207° | - | - |
| 1777889348 | 17.22° C | 42% | 1010.8 hPa | 0 mm | 4.47 m/s, 222° | - | - |
| 1777889049 | 17.22° C | 42% | 1010.8 hPa | 0 mm | 3.58 m/s, 195° | - | - |
| 1777888751 | 17.22° C | 42% | 1010.8 hPa | 0 mm | 3.13 m/s, 222° | - | - |
| 1777888451 | 17.22° C | 42% | 1010.8 hPa | 0 mm | 2.68 m/s, 198° | - | - |
| 1777888152 | 17.22° C | 42% | 1010.8 hPa | 0 mm | 3.58 m/s, 209° | - | - |
| 1777887854 | 17.22° C | 41% | 1010.8 hPa | 0 mm | 3.58 m/s, 215° | - | - |
| 1777887553 | 17.22° C | 41% | 1010.8 hPa | 0 mm | 3.58 m/s, 161° | - | - |
| 1777887250 | 17.22° C | 41% | 1010.8 hPa | 0 mm | 2.68 m/s, 185° | - | - |
| 1777886952 | 17.22° C | 40% | 1010.8 hPa | 0 mm | 2.24 m/s, 239° | - | - |
| 1777886352 | 17.22° C | 40% | 1010.8 hPa | 0 mm | 3.13 m/s, 194° | - | - |
| 1777885752 | 17.22° C | 39% | 1010.8 hPa | 0 mm | 3.13 m/s, 209° | - | - |
| 1777885455 | 17.22° C | 39% | 1010.8 hPa | 0 mm | 2.68 m/s, 163° | - | - |
| 1777885153 | 17.22° C | 38% | 1010.8 hPa | 0 mm | 3.13 m/s, 225° | - | - |
| 1777884850 | 17.22° C | 38% | 1010.8 hPa | 0 mm | 2.68 m/s, 204° | - | - |
| 1777883953 | 17.22° C | 37% | 1010.8 hPa | 0 mm | 3.13 m/s, 196° | - | - |
| 1777883055 | 17.22° C | 35% | 1011.8 hPa | 0 mm | 3.13 m/s, 192° | - | - |
* Rain latest hour (hover to see other rain measurements)
** Current wind speed in m/s (hover to see current wind gust speed)